This is the latest recevied weather packets stored in our database for station/object G0TGD-10. If no packets are shown the sender has not sent any weather packets the latest 10 day(s).
| Time | Temp. | Humidity | Pressure | Rain* | Wind** | Luminosity | Snow |
|---|---|---|---|---|---|---|---|
| 1777098877 | 3.33° C | 55% | 1021.5 hPa | - | - | - | - |
| 1777097976 | 2.78° C | 55% | 1021.4 hPa | - | - | - | - |
| 1777097077 | 1.67° C | 55% | 1021.3 hPa | - | - | - | - |
| 1777096176 | 1.11° C | 54% | 1021.4 hPa | - | - | - | - |
| 1777095276 | 0.56° C | 55% | 1021.4 hPa | - | - | - | - |
| 1777094376 | 0.56° C | 54% | 1021.4 hPa | - | - | - | - |
| 1777093476 | 0.56° C | 54% | 1021.3 hPa | - | - | - | - |
| 1777092576 | 0° C | 54% | 1021.2 hPa | - | - | - | - |
| 1777091676 | 0° C | 54% | 1021.2 hPa | - | - | - | - |
| 1777090776 | 0° C | 54% | 1021.3 hPa | - | - | - | - |
| 1777089876 | 0.56° C | 54% | 1021.3 hPa | - | - | - | - |
| 1777088976 | 0.56° C | 53% | 1021.4 hPa | - | - | - | - |
| 1777088076 | 0.56° C | 53% | 1021.4 hPa | - | - | - | - |
| 1777087176 | 1.11° C | 53% | 1021.5 hPa | - | - | - | - |
| 1777086275 | 1.11° C | 53% | 1021.6 hPa | - | - | - | - |
| 1777085375 | 1.11° C | 53% | 1021.7 hPa | - | - | - | - |
| 1777084475 | 1.11° C | 52% | 1021.9 hPa | - | - | - | - |
| 1777083575 | 1.11° C | 52% | 1021.8 hPa | - | - | - | - |
| 1777082675 | 1.11° C | 52% | 1021.8 hPa | - | - | - | - |
| 1777081775 | 1.67° C | 52% | 1021.8 hPa | - | - | - | - |
| 1777080875 | 2.22° C | 51% | 1021.9 hPa | - | - | - | - |
| 1777079975 | 2.22° C | 51% | 1021.9 hPa | - | - | - | - |
| 1777079075 | 2.22° C | 51% | 1022.1 hPa | - | - | - | - |
| 1777078175 | 2.78° C | 50% | 1022.1 hPa | - | - | - | - |
| 1777077275 | 2.78° C | 50% | 1022.4 hPa | - | - | - | - |
* Rain since midnight (hover to see other rain measurements)
** Current wind speed in m/s (hover to see current wind gust speed)